Tracking 30415 objects as of 15-May-2025
HD Live streaming from Space Station
objects crossing your sky now

ATLAS 5 CENTAUR DEB

Track ATLAS 5 CENTAUR DEB now!


NORAD ID: 44685
Int'l Code: 2018-079AX
Perigee: 9,657.4 km
Apogee: 37,086.7 km
Inclination: 11.7 °
Period: 850.8 minutes
Semi major axis: 29743 km
RCS: Unknown
Launch date: October 17, 2018
Source: United States (US)
Launch site: AIR FORCE EASTERN TEST RANGE (AFETR)

Note: This is SATELLITE DEBRIS
Your satellite tracking list
Your tracking list is empty




NASA's NSSDC Master Catalog

Two Line Element Set (TLE):
1 44685U 18079AX  25134.59145310 -.00000064  00000-0  00000-0 0  9996
2 44685  11.6654 103.3217 4611037 179.0813 182.2720  1.69248446 36757
Source of the keplerian elements: AFSPC